Regional Weather Roundup
Issued by NWS Goodland, KS

Home | Current Version | Previous Version | Text Only | Print | Product List | Glossary On
Versions: 1 2 3 4 5 6 7 8 9 10 11 12 13 14 15 16 17 18 19 20 21 22 23 24 25 26 27 28 29 30 31 32 33 34 35 36 37 38 39 40 41 42 43 44 45 46 47 48 49 50
000
ASUS43 KGLD 261259
RWRGLD

GOODLAND FORECAST AREA HOURLY WEATHER ROUNDUP
NATIONAL WEATHER SERVICE GOODLAND KS
700 AM MDT TUE SEP 26 2017

...OFFICIAL OBSERVATIONS...

CITY           SKY/WX    TMP DP  RH WIND       PRES   REMARKS
GOODLAND KS    CLOUDY    45  44  97 NE3       30.18R
HILL CITY KS   MOCLDY    49  47  93 NW7       30.16S
IMPERIAL NEB   PTCLDY    44  41  89 W3        30.19R
MCCOOK NEB     MOCLDY    44  44 100 W3        30.18R
AKRON CO       CLEAR     39  38  96 SW7       30.18R
BURLINGTON CO  CLOUDY    45  44  97 N5        30.19R FOG
LIMON CO         N/A    N/A N/A N/A MISG      30.20R
$$

...UNOFFICIAL OBSERVATIONS...

CITY           SKY/WX    TMP DP  RH WIND       PRES   REMARKS
LENORA KS        N/A     46  32  58 MISG        N/A
NORTON KS      CLOUDY    48  45  87 NW10      30.17R
SHARON SPRINGS   N/A     46  45  96 CALM        N/A
KIT CARSON CO    N/A     45  42  91 MISG        N/A
YUMA CO        FOG       37  37 100 CALM      30.19R VSB 1/4
$$




USA.gov is the U.S. government's official web portal to all federal, state and local government web resources and services.